Tracking 20083 objects as of 8-Dec-2019
HD Live streaming from Space Station
objects crossing your sky now

NOAA 16 DEB

Track NOAA 16 DEB now!
10-day predictions


NORAD ID: 42348
Int'l Code: 2000-055QQ
Perigee: 845.5 km
Apogee: 957.2 km
Inclination: 98.8 °
Period: 102.9 minutes
Semi major axis: 7272 km
RCS: Unknown
Launch date: September 21, 2000
Source: United States (US)
Launch site: AIR FORCE WESTERN TEST RANGE (AFWTR)

Note: This is SATELLITE DEBRIS
aabbcc
Your satellite tracking list
Your tracking list is empty




NASA's NSSDC Master Catalog

Two Line Element Set (TLE):
1 42348U 00055QQ  19341.39135023  .00000892  00000-0  62008-3 0  9993
2 42348  98.7869  13.0983 0076793 133.2508 227.5101 13.99877745194426
Source of the keplerian elements: AFSPC